Location: Marcé
(47.5801°N, 0.3280°W)
Time: 22:26:55
(UTC+01:00)

S-56A Canister/Altair - Pass Details

Date: 03 December 2021
Orbit: 633 x 2499 km, 38.9° (Epoch: 16 January)

Event Time Altitude Azimuth Distance (km) Brightness Sun altitude
Rises 00:38:55 0° 221° (SW) 5,222 - -64.4°
Reaches altitude 10° 00:43:24 10° 211° (SSW) 3,893 - -64.5°
Maximum altitude 00:50:54 26° 160° (SSE) 2,274 - -64.5°
Drops below altitude 10° 00:56:26 10° 106° (ESE) 2,805 - -64.5°
Sets 00:59:06 0° 93° (E) 3,538 - -64.5°
